Weather History for Mackinac Island, MI

Change the Weather History Date:

Saturday, December 1, 2012

  Actual Average Record
Temperature  
Mean Temperature 34 °F -  
Max Temperature 38 °F 35 °F 51 °F (1998)
Min Temperature 30 °F 27 °F 8 °F (2007)
Degree Days  
Heating Degree Days 31    
Moisture  
Dew Point 32 °F    
Average Humidity 91    
Maximum Humidity 96    
Minimum Humidity 86    
Precipitation  
Precipitation 0.10 in - - ()
Sea Level Pressure  
Sea Level Pressure 30.08 in    
Wind  
Wind Speed 10 mph (SE)    
Max Wind Speed 16 mph    
Max Gust Speed 25 mph    
Visibility 7 miles    
Events Rain , Snow    
Averages and records for this station are not official NWS values.
T = Trace of Precipitation, MM = Missing Value Source: NWS Daily Summary

Daily Weather History Graph

Daily Weather History Graph

Search for Another Location

Airport:

Trip Planner

Search our weather history database for the weather conditions in past years. The results will help you decide how hot, cold, wet, or windy it might be!

Date:

Astronomy

Dec. 01, 2012 Rise Set
Actual Time 8:00 AM EST 4:55 PM EST
Civil Twilight 7:26 AM EST 5:29 PM EST
Nautical Twilight 6:48 AM EST 6:06 PM EST
Astronomical Twilight 6:13 AM EST 6:42 PM EST
Moon 7:47 PM EST (12/1) 10:10 AM EST (12/1)
Length of Visible Light 10h 02m
Length of Day
8h 55m
Waning Gibbous, 92% of the Moon is Illuminated
Dec 1
Waning Gibbous
Dec 6
Last Quarter
Dec 13
New
Dec 20
First Quarter
Dec 28
Full

Hourly Weather History & Observations

Time (EST) Temp. Windchill Dew Point Humidity Pressure Visibility Wind Dir Wind Speed Gust Speed Precip Events Conditions
12:16 AM 31.3 °F 23.9 °F 29.1 °F 92% 30.30 in 7.0 mi ESE 8.1 mph 16.1 mph N/A   Overcast
12:35 AM 30.9 °F 20.7 °F 28.8 °F 92% 30.30 in 10.0 mi ESE 13.8 mph 18.4 mph N/A   Overcast
12:56 AM 31.1 °F 21.9 °F 29.1 °F 92% 30.28 in 10.0 mi East 11.5 mph 23.0 mph N/A   Overcast
1:16 AM 30.6 °F 19.8 °F 28.4 °F 92% 30.28 in 10.0 mi East 15.0 mph 25.3 mph N/A   Overcast
1:35 AM 30.2 °F 21.3 °F 28.2 °F 92% 30.28 in 10.0 mi East 10.4 mph 23.0 mph N/A   Overcast
2:16 AM 30.6 °F 20.2 °F 28.6 °F 92% 30.28 in 10.0 mi East 13.8 mph 23.0 mph N/A   Overcast
2:35 AM 30.7 °F 20.0 °F 28.4 °F 91% 30.28 in 10.0 mi East 15.0 mph 20.7 mph N/A   Overcast
2:56 AM 30.7 °F 20.0 °F 28.8 °F 92% 30.28 in 7.0 mi East 15.0 mph 25.3 mph N/A   Overcast
3:16 AM 30.7 °F 21.4 °F 28.9 °F 93% 30.28 in 7.0 mi East 11.5 mph 19.6 mph N/A   Overcast
3:35 AM 31.1 °F 20.9 °F 29.3 °F 93% 30.28 in 7.0 mi East 13.8 mph 23.0 mph N/A   Overcast
4:35 AM 31.8 °F 21.4 °F 30.4 °F 94% 30.25 in 4.0 mi ESE 15.0 mph 24.2 mph N/A   Overcast
5:16 AM 32.4 °F 22.1 °F 31.5 °F 96% 30.24 in 7.0 mi SE 15.0 mph 20.7 mph N/A   Overcast
5:35 AM 32.4 °F 26.9 °F 31.5 °F 96% 30.23 in 5.0 mi ESE 5.8 mph - N/A   Overcast
5:56 AM 32.4 °F 25.3 °F 31.5 °F 96% 30.22 in 5.0 mi SE 8.1 mph 17.3 mph N/A   Overcast
6:16 AM 32.5 °F 24.8 °F 31.5 °F 96% 30.22 in 7.0 mi SE 9.2 mph - N/A   Overcast
6:35 AM 32.9 °F 25.3 °F 31.5 °F 94% 30.22 in 7.0 mi SE 9.2 mph - N/A   Overcast
7:16 AM 32.9 °F 23.7 °F 31.1 °F 93% 30.21 in 10.0 mi SE 12.7 mph 18.4 mph N/A   Overcast
7:35 AM 32.9 °F 24.7 °F 30.9 °F 92% 30.22 in 10.0 mi SE 10.4 mph 18.4 mph N/A   Overcast
7:56 AM 32.9 °F 24.7 °F 30.6 °F 91% 30.20 in 10.0 mi SE 10.4 mph 19.6 mph N/A   Mostly Cloudy
8:16 AM 32.9 °F 25.3 °F 30.7 °F 92% 30.21 in 10.0 mi SE 9.2 mph 19.6 mph N/A   Overcast
8:35 AM 33.1 °F 24.9 °F 30.7 °F 91% 30.18 in 10.0 mi SE 10.4 mph 18.4 mph N/A   Overcast
8:56 AM 33.1 °F 24.4 °F 30.7 °F 91% 30.17 in 10.0 mi SE 11.5 mph 23.0 mph N/A   Overcast
9:15 AM 33.1 °F 24.4 °F 30.9 °F 92% 30.17 in 10.0 mi SE 11.5 mph 19.6 mph N/A   Overcast
9:36 AM 33.1 °F 26.1 °F 30.9 °F 92% 30.17 in 7.0 mi SE 8.1 mph 21.9 mph N/A   Overcast
10:16 AM 33.4 °F 24.3 °F 31.1 °F 91% 30.17 in 7.0 mi SE 12.7 mph 20.7 mph N/A   Overcast
10:36 AM 33.8 °F 23.9 °F 31.1 °F 90% 30.16 in 7.0 mi SE 15.0 mph 20.7 mph N/A   Overcast
10:55 AM 34.0 °F 25.5 °F 31.5 °F 90% 30.16 in 7.0 mi SE 11.5 mph 24.2 mph N/A   Overcast
11:16 AM 34.0 °F 23.8 °F 31.5 °F 90% 30.14 in 7.0 mi SE 16.1 mph 20.7 mph N/A   Overcast
11:36 AM 34.3 °F 27.7 °F 31.6 °F 90% 30.12 in 7.0 mi SE 8.1 mph 21.9 mph N/A   Overcast
11:55 AM 34.3 °F 27.0 °F 31.5 °F 89% 30.10 in 7.0 mi SE 9.2 mph 20.7 mph N/A   Overcast
12:16 PM 34.7 °F 27.5 °F 31.8 °F 89% 30.10 in 7.0 mi SE 9.2 mph 18.4 mph N/A   Overcast
12:36 PM 34.9 °F 28.3 °F 31.8 °F 89% 30.09 in 7.0 mi SE 8.1 mph 20.7 mph N/A   Overcast
12:55 PM 34.9 °F 26.6 °F 32.0 °F 89% 30.09 in 7.0 mi SSE 11.5 mph 19.6 mph N/A   Overcast
1:16 PM 35.1 °F 27.9 °F 32.0 °F 89% 30.08 in 7.0 mi SE 9.2 mph - N/A   Overcast
1:36 PM 35.1 °F 26.9 °F 32.0 °F 89% 30.06 in 7.0 mi SE 11.5 mph 16.1 mph N/A   Overcast
1:55 PM 35.6 °F 28.6 °F 32.0 °F 87% 30.04 in 7.0 mi SE 9.2 mph 16.1 mph N/A   Overcast
2:16 PM 35.6 °F 30.7 °F 32.0 °F 87% 30.03 in 7.0 mi SE 5.8 mph - N/A   Overcast
2:36 PM 35.8 °F 28.8 °F 32.0 °F 86% 30.03 in 7.0 mi SE 9.2 mph - N/A   Overcast
2:55 PM 35.8 °F 29.4 °F 32.0 °F 86% 30.02 in 7.0 mi SE 8.1 mph - N/A   Overcast
3:16 PM 36.0 °F 29.6 °F 32.0 °F 86% 30.01 in 7.0 mi SE 8.1 mph 17.3 mph N/A   Overcast
3:35 PM 36.0 °F 31.1 °F 32.0 °F 86% 30.00 in 7.0 mi SE 5.8 mph - N/A   Overcast
3:56 PM 36.0 °F 31.1 °F 32.0 °F 86% 30.00 in 7.0 mi SE 5.8 mph - N/A   Mostly Cloudy
4:16 PM 35.8 °F 30.1 °F 32.0 °F 86% 29.99 in 7.0 mi SSE 6.9 mph 17.3 mph N/A   Mostly Cloudy
4:35 PM 35.6 °F 28.6 °F 32.0 °F 87% 29.98 in 5.0 mi SSE 9.2 mph - N/A   Overcast
4:56 PM 35.6 °F 28.0 °F 32.0 °F 87% 29.97 in 5.0 mi SSE 10.4 mph 17.3 mph N/A   Overcast
5:16 PM 35.6 °F 28.6 °F 32.0 °F 87% 29.97 in 7.0 mi SSE 9.2 mph 16.1 mph N/A   Scattered Clouds
5:35 PM 35.4 °F 27.8 °F 32.0 °F 87% 29.97 in 7.0 mi SSE 10.4 mph - N/A   Scattered Clouds
5:56 PM 35.6 °F 29.2 °F 32.0 °F 87% 29.97 in 7.0 mi SSE 8.1 mph 17.3 mph N/A   Scattered Clouds
6:16 PM 35.6 °F 27.1 °F 32.0 °F 87% 29.96 in 7.0 mi SSE 12.7 mph 17.3 mph N/A   Mostly Cloudy
6:56 PM 35.2 °F 26.6 °F 32.2 °F 89% 29.94 in 7.0 mi SSE 12.7 mph 17.3 mph N/A   Mostly Cloudy
7:15 PM 35.2 °F 27.6 °F 32.2 °F 89% 29.92 in 7.0 mi SSE 10.4 mph 18.4 mph N/A   Overcast
7:35 PM 35.2 °F 26.6 °F 32.2 °F 89% 29.89 in 7.0 mi SSE 12.7 mph 20.7 mph N/A   Overcast
7:56 PM 35.2 °F 27.6 °F 32.2 °F 89% 29.90 in 5.0 mi SSE 10.4 mph 16.1 mph N/A Rain Light Rain
8:15 PM 35.2 °F 28.1 °F 32.9 °F 91% 29.89 in 4.0 mi SE 9.2 mph - N/A Rain Light Rain
8:56 PM 35.4 °F 28.4 °F 33.6 °F 93% 29.87 in 2.0 mi SSE 9.2 mph - 0.05 in Rain Light Rain
9:15 PM 35.6 °F 30.7 °F 34.0 °F 94% 29.86 in 2.5 mi SSE 5.8 mph - 0.01 in Rain Light Rain
9:36 PM 35.6 °F 30.7 °F 34.2 °F 94% 29.85 in 2.0 mi SSE 5.8 mph - 0.05 in Snow Light Snow
9:56 PM 36.5 °F 30.3 °F 34.9 °F 94% 29.84 in 3.0 mi SE 8.1 mph - 0.05 in Rain Light Rain
10:15 PM 36.5 °F 29.7 °F 35.1 °F 95% 29.83 in 3.0 mi SSE 9.2 mph - N/A   Light Drizzle
10:36 PM 37.4 °F 32.1 °F 36.1 °F 95% 29.83 in 3.0 mi South 6.9 mph - N/A Rain Light Rain
10:55 PM 38.3 °F - 36.5 °F 93% 29.82 in 4.0 mi Calm Calm - N/A   Light Drizzle
11:16 PM 37.6 °F - 36.1 °F 95% 29.82 in 1.2 mi Calm Calm - N/A   Overcast
11:36 PM 37.6 °F 35.1 °F 36.3 °F 95% 29.81 in 1.8 mi SSE 3.5 mph - N/A   Overcast